"Pseudo-MPEC" for P11pjKo

Created 2021 Dec 1 14:07:40 UT using Find_Orb

Click here for an explanation of pseudo-MPECs

 
 Astrometry: 
     P11pjKo  C2021 11 24bn9288wFD-kbb/qp,J)*_)BwQcaZqly4`lFx^wx(_jEGSq9@C%]@F51
     P11pjKo  C2021 11 24V4)=H!cGi#:iVxAstrometryfT[KDLwvCjD4u'T+p7H8f@[iZJE2F51
     P11pjKo  C2021 11 247mxsiPof@ed.`lkTn4F4T(#h,I!w#n:!B]+kILWhZqZw=P+edQysF51
     P11pjKo  C2021 11 25Yaf%bc\1W^-nixrredacted;o/`P[t'RJ2=hcpclickawLI=,eZhF52
     P11pjKo  C2021 11 25v8),p\XeEoZ8P2b)+yFhere#o@2for[explanation1l'oSQ+1pPF52
     P11pjKo  C2021 11 25*f1vw9Y'x_ZD`n\r)6sn]c6+n!!y+Ad\^auqBMV#Krcs.6x/q[c4F52
     P11pjKo  C2021 11 25KH]MI\2kH);C^J0;v(XojnLhWwJt1OBnVl*i7^7@5t^9*Si21_VeF52
     P11pjKo KC2021 12 01.44469909 57 36.81 +71 36 11.3    ~C1Bb 20.48GVNEOCPI52
     P11pjKo KC2021 12 01.45251109 57 38.43 +71 36 17.3    ~C1Bb 20.87GVNEOCPI52
     P11pjKo KC2021 12 01.46299609 57 40.70 +71 36 25.1    ~C1Bb 20.70GVNEOCPI52
     P11pjKo KC2021 12 01.46890009 57 41.86 +71 36 29.5    ~C1Bb 20.76GVNEOCPI52

Station data:
(F51) Pan-STARRS 1, Haleakala  (N20.707235 W156.255910)  US/Hawaii.
   Observers N. Primak, A. Schultz, S. Watters, J. Thiel, T. Goggia. Measurer
   PS1 Science Consortium. 1.8-m Ritchey-Chrétien + CCD.
(F52) Pan-STARRS 2, Haleakala  (N20.707384 W156.255910)  US/Hawaii. 1.8-m
   Ritchey-Chrétien + CCD.
(I52) Steward Observatory, Mt. Lemmon Station  (N32.442547 W110.788920)
   US/Arizona.  Observers T. A. Pruyne, B. M. Africano, E. J. Christensen, G.
   A. Farneth, D. C. Fuls, A. R. Gibbs, A. D. Grauer, H. Gröller, J. A.
   Johnson, R. A. Kowalski, S. M. Larson, G. J. Leonard, D. Rankin, R. L.
   Seaman, F. C. Shelly. 1.0-m reflector + CCD.

Orbital elements:  P11pjKo
   Perihelion 2021 Nov 20.201764 +/- 1.01682 TT =  4:50:32 (JD 2459538.701764)
Epoch 2021 Dec  1.0 TT = JDT 2459549.5   Earth MOID: 0.8399   AutoNEOCP
M   2.31556049 +/- 0.1593035        (J2000 ecliptic)
n   0.21443876 +/- 0.00590829       Peri.   68.88995 +/- 0.7617180
a   2.76439765 +/- 0.0507673        Node    14.01532 +/- 0.3522022
e   0.4017191 +/- 0.00915745        Incl.   30.20841 +/- 0.1491734
P   4.60                   H 18.8   G  0.15   U  9.3  
q 1.65388621 +/- 0.00546621    Q 3.87490910 +/- 0.0989766
From 11 observations 2021 Nov. 24-Dec. 1; mean residual 0".13
Residuals in arcseconds: 
211124 F51  .01-  .03+    211125 F52  .00   .18-    211201 I52  .02-  .09+    
211124 F51  .01-  .06-    211125 F52  .29+  .12+    211201 I52  .14+  .03-    
211124 F51  .02+  .03+    211125 F52  .19-  .01-    211201 I52  .33-  .07-    
211125 F52  .12-  .07+    211201 I52  .21+  .00     

Ephemerides (geocentric):
Date (UTC) HH   RA              Dec         delta   r     elong  mag " sig PA
---- -- -- --  -------------   -----------  ------ ------ -----  --- ---- ---
2021 12 01 14  09 58 06.766   +71 37 48.58  0.9982 1.6567 113.2 21.3 .048 117
2021 12 01 15  09 58 16.003   +71 38 19.16  0.9981 1.6567 113.2 21.3 .062 123
2021 12 01 16  09 58 25.231   +71 38 49.72  0.9980 1.6567 113.2 21.3 .076 128
2021 12 01 17  09 58 34.452   +71 39 20.25  0.9980 1.6568 113.2 21.3 .092 131
2021 12 01 18  09 58 43.666   +71 39 50.75  0.9979 1.6568 113.2 21.3 .107 133
2021 12 01 19  09 58 52.872   +71 40 21.23  0.9979 1.6568 113.3 21.3 .123 134
2021 12 01 20  09 59 02.070   +71 40 51.69  0.9978 1.6568 113.3 21.3 .139 135
2021 12 01 21  09 59 11.261   +71 41 22.12  0.9977 1.6568 113.3 21.3 .155 136
2021 12 01 22  09 59 20.444   +71 41 52.53  0.9977 1.6569 113.3 21.3 .172 137
2021 12 01 23  09 59 29.620   +71 42 22.92  0.9976 1.6569 113.3 21.3 .189 138
2021 12 02 00  09 59 38.787   +71 42 53.28  0.9976 1.6569 113.3 21.3 .206 138
2021 12 02 01  09 59 47.947   +71 43 23.61  0.9975 1.6569 113.3 21.3 .223 139
2021 12 02 02  09 59 57.100   +71 43 53.93  0.9974 1.6569 113.3 21.3 .240 139
2021 12 02 03  10 00 06.244   +71 44 24.22  0.9974 1.6570 113.3 21.3 .258 140
2021 12 02 04  10 00 15.381   +71 44 54.48  0.9973 1.6570 113.3 21.3 .276 140
2021 12 02 05  10 00 24.510   +71 45 24.72  0.9973 1.6570 113.3 21.3 .294 140
2021 12 02 06  10 00 33.631   +71 45 54.94  0.9972 1.6570 113.3 21.3 .312 141
2021 12 02 07  10 00 42.744   +71 46 25.13  0.9972 1.6571 113.4 21.3 .331 141
2021 12 02 08  10 00 51.850   +71 46 55.30  0.9971 1.6571 113.4 21.3 .349 141
2021 12 02 09  10 01 00.947   +71 47 25.44  0.9970 1.6571 113.4 21.3 .368 141
2021 12 02 10  10 01 10.037   +71 47 55.57  0.9970 1.6571 113.4 21.3 .387 141
2021 12 02 11  10 01 19.119   +71 48 25.66  0.9969 1.6571 113.4 21.3 .407 141
2021 12 02 12  10 01 28.193   +71 48 55.74  0.9969 1.6572 113.4 21.3 .426 142
2021 12 02 13  10 01 37.259   +71 49 25.79  0.9968 1.6572 113.4 21.3 .446 142
2021 12 02 14  10 01 46.316   +71 49 55.81  0.9967 1.6572 113.4 21.3 .466 142
2021 12 02 15  10 01 55.366   +71 50 25.82  0.9967 1.6572 113.4 21.3 .486 142
2021 12 02 16  10 02 04.408   +71 50 55.80  0.9966 1.6573 113.4 21.3 .506 142
2021 12 02 17  10 02 13.442   +71 51 25.75  0.9966 1.6573 113.4 21.3 .526 142
2021 12 02 18  10 02 22.468   +71 51 55.68  0.9965 1.6573 113.4 21.3 .547 142
2021 12 02 19  10 02 31.485   +71 52 25.59  0.9965 1.6573 113.4 21.3 .568 142
2021 12 02 20  10 02 40.495   +71 52 55.48  0.9964 1.6573 113.5 21.3 .589 142
2021 12 02 21  10 02 49.496   +71 53 25.34  0.9964 1.6574 113.5 21.3 .610 142
2021 12 02 22  10 02 58.489   +71 53 55.18  0.9963 1.6574 113.5 21.3 .632 142
2021 12 02 23  10 03 07.475   +71 54 24.99  0.9962 1.6574 113.5 21.3 .653 142
2021 12 03 00  10 03 16.451   +71 54 54.78  0.9962 1.6574 113.5 21.3 .675 142
2021 12 03 01  10 03 25.420   +71 55 24.55  0.9961 1.6575 113.5 21.3 .697 143
2021 12 03 02  10 03 34.381   +71 55 54.30  0.9961 1.6575 113.5 21.3 .720 143
2021 12 03 03  10 03 43.333   +71 56 24.02  0.9960 1.6575 113.5 21.3 .742 143
2021 12 03 04  10 03 52.277   +71 56 53.72  0.9960 1.6575 113.5 21.3 .765 143
2021 12 03 05  10 04 01.212   +71 57 23.39  0.9959 1.6576 113.5 21.3 .788 143
2021 12 03 06  10 04 10.140   +71 57 53.04  0.9958 1.6576 113.5 21.3 .811 143
2021 12 03 07  10 04 19.059   +71 58 22.67  0.9958 1.6576 113.5 21.3 .834 143
2021 12 03 08  10 04 27.969   +71 58 52.28  0.9957 1.6576 113.6 21.3 .858 143
2021 12 03 09  10 04 36.871   +71 59 21.86  0.9957 1.6576 113.6 21.3 .881 143
2021 12 03 10  10 04 45.765   +71 59 51.42  0.9956 1.6577 113.6 21.3 .905 143
2021 12 03 11  10 04 54.651   +72 00 20.96  0.9956 1.6577 113.6 21.3 .929 143
2021 12 03 12  10 05 03.528   +72 00 50.47  0.9955 1.6577 113.6 21.3 .954 143
2021 12 03 13  10 05 12.396   +72 01 19.96  0.9955 1.6577 113.6 21.3 .978 143